CW0343 Weather Reports


Display with metric or nautical units.
time (UTC)temp
F
wind
direction
speed
MPH
gust
MPH
rain 1hr
in
rain 24hr
in
rain mn
in
humidity
%
barometer
mb
20260510153805 66 73 1.0 3.0 0.00 0.00 0.00 81 1018.4
20260510153306 66 73 2.0 3.0 0.00 0.00 0.00 81 1018.4
20260510152804 66 73 3.0 3.0 0.00 0.00 0.00 81 1018.5
20260510152307 66 75 2.0 2.0 0.00 0.00 0.00 81 1018.5
20260510151804 66 75 2.0 3.0 0.00 0.00 0.00 81 1018.6
20260510151304 66 2 0.0 0.0 0.00 0.00 0.00 81 1018.7
20260510145805 66 76 3.0 3.0 0.00 0.00 0.00 81 1019.0
20260510145306 66 75 2.0 2.0 0.00 0.00 0.00 81 1018.9
20260510144805 66 75 2.0 3.0 0.00 0.00 0.00 81 1018.9
20260510144304 66 75 2.0 3.0 0.00 0.00 0.00 81 1019.0
20260510142804 66 77 0.0 0.0 0.00 0.00 0.00 80 1019.3
20260510141805 67 77 1.0 2.0 0.00 0.00 0.00 80 1019.5
20260510140305 68 77 1.0 3.0 0.00 0.00 0.00 80 1019.7
20260510135805 68 78 0.0 2.0 0.00 0.00 0.00 80 1019.6
20260510135306 68 78 1.0 2.0 0.00 0.00 0.00 79 1019.6
20260510134804 68 3 0.0 0.0 0.00 0.00 0.00 79 1019.7
20260510134304 68 3 0.0 0.0 0.00 0.00 0.00 79 1019.8
20260510133805 68 2 0.0 0.0 0.00 0.00 0.00 79 1019.9
20260510133305 68 3 0.0 0.0 0.00 0.00 0.00 79 1019.9
20260510132306 68 3 0.0 0.0 0.00 0.00 0.00 79 1019.9
20260510131805 68 2 0.0 0.0 0.00 0.00 0.00 79 1020.1
20260510131305 68 3 0.0 0.0 0.00 0.00 0.00 79 1020.2
20260510130804 68 3 0.0 0.0 0.00 0.00 0.00 79 1020.2
20260510130304 68 3 0.0 0.0 0.00 0.00 0.00 79 1020.3
20260510125804 68 3 0.0 0.0 0.00 0.00 0.00 79 1020.3
20260510125307 68 3 0.0 0.0 0.00 0.00 0.00 79 1020.2
20260510124805 68 3 0.0 0.0 0.00 0.00 0.00 79 1020.3
20260510124304 68 2 0.0 0.0 0.00 0.00 0.00 79 1020.3
20260510123805 68 2 0.0 0.0 0.00 0.00 0.00 79 1020.3
20260510123306 68 2 0.0 0.0 0.00 0.00 0.00 79 1020.3
20260510122804 68 94 3.0 3.0 0.00 0.00 0.00 79 1020.2
20260510122306 68 103 3.0 3.0 0.00 0.00 0.00 79 1020.1
20260510121804 68 103 3.0 6.0 0.00 0.00 0.00 79 1020.1
20260510121304 68 108 2.0 2.0 0.00 0.00 0.00 79 1020.2
20260510120805 69 3 0.0 0.0 0.00 0.00 0.00 79 1020.2
20260510120304 69 3 0.0 0.0 0.00 0.00 0.00 79 1020.3
20260510115805 69 3 0.0 0.0 0.00 0.00 0.00 79 1020.3
20260510115306 69 2 0.0 0.0 0.00 0.00 0.00 79 1020.4
20260510114804 69 1 0.0 0.0 0.00 0.00 0.00 79 1020.3
20260510113804 69 142 7.0 7.0 0.00 0.00 0.00 79 1020.3
20260510113304 69 152 7.0 7.0 0.00 0.00 0.00 79 1020.3
20260510112804 69 150 3.0 7.0 0.00 0.00 0.00 79 1020.2
20260510112306 69 132 2.0 7.0 0.00 0.00 0.00 79 1020.2
20260510111805 69 145 5.0 9.0 0.00 0.00 0.00 79 1020.2
20260510111305 69 127 5.0 7.0 0.00 0.00 0.00 79 1020.3
20260510110805 69 144 5.0 5.0 0.00 0.00 0.00 79 1020.3
20260510110305 69 3 0.0 0.0 0.00 0.00 0.00 79 1020.4
20260510105804 69 3 0.0 0.0 0.00 0.00 0.00 79 1020.4
20260510105306 69 3 0.0 0.0 0.00 0.00 0.00 79 1020.3
20260510104805 69 148 7.0 7.0 0.00 0.00 0.00 79 1020.4
20260510104306 69 156 7.0 7.0 0.00 0.00 0.00 79 1020.3
20260510103804 69 155 6.0 13.0 0.00 0.00 0.00 79 1020.2
20260510103305 69 134 7.0 12.0 0.00 0.00 0.00 79 1020.0
20260510102805 70 141 7.0 15.0 0.00 0.00 0.00 79 1020.0
20260510102306 70 131 10.0 16.0 0.00 0.00 0.00 79 1019.9
20260510101804 70 120 8.0 15.0 0.00 0.00 0.00 79 1020.0
20260510101304 70 123 10.0 17.0 0.00 0.00 0.00 79 1020.0
20260510100805 70 135 7.0 14.0 0.00 0.00 0.00 79 1020.0
20260510100304 69 113 9.0 15.0 0.00 0.00 0.00 79 1019.9
20260510095306 69 148 3.0 3.0 0.00 0.00 0.00 80 1019.8
20260510094804 69 148 3.0 7.0 0.00 0.00 0.00 80 1019.8
20260510094304 69 145 3.0 9.0 0.00 0.00 0.00 80 1019.8
20260510093804 69 130 5.0 10.0 0.00 0.00 0.00 80 1019.7
20260510093306 69 152 7.0 15.0 0.00 0.00 0.00 79 1019.7
20260510092804 69 141 5.0 12.0 0.00 0.00 0.00 80 1019.6
20260510092306 69 149 5.0 12.0 0.00 0.00 0.00 80 1019.6
20260510091805 69 134 6.0 10.0 0.00 0.00 0.00 79 1019.5
20260510091305 69 131 5.0 10.0 0.00 0.00 0.00 79 1019.4
20260510090804 69 146 6.0 10.0 0.00 0.00 0.00 79 1019.3
20260510090304 69 127 7.0 12.0 0.00 0.00 0.00 79 1019.2
20260510085804 69 141 5.0 12.0 0.00 0.00 0.00 79 1019.1
20260510085306 69 126 5.0 10.0 0.00 0.00 0.00 80 1019.2
20260510084804 69 139 5.0 12.0 0.00 0.00 0.00 79 1019.1
20260510084304 69 120 7.0 12.0 0.00 0.00 0.00 79 1019.2
20260510083804 69 148 6.0 6.0 0.00 0.00 0.00 79 1019.2
20260510083305 69 147 5.0 12.0 0.00 0.00 0.00 79 1019.1
20260510082306 70 157 7.0 12.0 0.00 0.00 0.00 79 1019.1
20260510081304 70 131 6.0 13.0 0.00 0.00 0.00 79 1018.8
20260510080805 70 138 4.0 9.0 0.00 0.00 0.00 78 1018.8
20260510080305 70 156 4.0 12.0 0.00 0.00 0.00 78 1018.8
20260510075804 70 133 5.0 12.0 0.00 0.00 0.00 78 1018.7
20260510075306 71 138 4.0 9.0 0.00 0.00 0.00 78 1018.8
20260510074804 71 124 7.0 12.0 0.00 0.00 0.00 78 1018.8
20260510074304 71 125 6.0 9.0 0.00 0.00 0.00 78 1018.9
20260510073803 71 128 7.0 13.0 0.00 0.00 0.00 77 1019.0
20260510072805 71 149 9.0 15.0 0.00 0.00 0.00 77 1018.8
20260510072306 72 151 10.0 17.0 0.00 0.00 0.00 77 1018.8
20260510071806 72 128 13.0 13.0 0.00 0.00 0.00 76 1018.6
20260510071305 72 147 8.0 15.0 0.00 0.00 0.00 75 1018.6
20260510070304 73 143 9.0 15.0 0.00 0.00 0.00 75 1018.5
20260510065804 73 141 14.0 18.0 0.00 0.00 0.00 75 1018.6
20260510065306 74 167 12.0 14.0 0.00 0.00 0.00 75 1018.5
20260510064805 74 123 5.0 13.0 0.00 0.00 0.00 75 1018.4
20260510063804 74 121 6.0 12.0 0.00 0.00 0.00 75 1018.3
20260510063304 73 130 8.0 12.0 0.00 0.00 0.00 75 1018.3
20260510062803 73 118 8.0 13.0 0.00 0.00 0.00 76 1018.3
20260510062307 73 156 7.0 14.0 0.00 0.00 0.00 77 1018.5
20260510061805 72 140 7.0 12.0 0.00 0.00 0.00 76 1018.5
20260510061305 72 152 6.0 10.0 0.00 0.00 0.00 76 1018.5
20260510060805 73 133 7.0 12.0 0.00 0.00 0.00 76 1018.7
20260510060306 73 129 7.0 12.0 0.00 0.00 0.00 76 1018.7
20260510055805 73 142 7.0 9.0 0.00 0.00 0.00 75 1018.6
20260510055306 73 167 5.0 12.0 0.00 0.00 0.00 75 1018.6
20260510054804 73 144 9.0 15.0 0.00 0.00 0.00 75 1018.8
20260510054305 73 167 6.0 14.0 0.00 0.00 0.00 76 1018.6
20260510053805 73 169 6.0 12.0 0.00 0.00 0.00 76 1018.6
20260510053304 73 133 6.0 12.0 0.00 0.00 0.00 76 1018.6
20260510052804 73 154 9.0 13.0 0.00 0.00 0.00 76 1018.6
20260510052306 74 160 7.0 14.0 0.00 0.00 0.00 75 1018.5
20260510051804 74 165 7.0 13.0 0.00 0.00 0.00 75 1018.6
20260510051304 74 2 0.0 5.0 0.00 0.00 0.00 72 1018.5
20260510050805 74 170 5.0 5.0 0.00 0.00 0.00 72 1018.4
20260510050304 74 170 5.0 7.0 0.00 0.00 0.00 72 1018.3
20260510045805 76 3 0.0 0.0 0.00 0.00 0.00 72 1018.3
20260510045306 76 3 0.0 0.0 0.00 0.00 0.00 72 1018.2
20260510044805 76 3 0.0 0.0 0.00 0.00 0.00 72 1018.2
20260510044304 76 3 0.0 0.0 0.00 0.00 0.00 72 1018.1
20260510043804 76 3 0.0 0.0 0.00 0.00 0.00 72 1018.1
20260510042805 76 3 0.0 0.0 0.00 0.00 0.00 72 1018.1
20260510042306 76 1 0.0 0.0 0.00 0.00 0.00 72 1018.0
20260510041804 76 3 0.0 0.0 0.00 0.00 0.00 72 1018.0
20260510041304 76 3 0.0 10.0 0.00 0.00 0.00 72 1018.0
20260510040305 76 167 10.0 10.0 0.00 0.00 0.00 72 1018.1
20260510035806 76 2 0.0 10.0 0.00 0.00 0.00 72 1017.9
20260510035306 76 3 0.0 0.0 0.00 0.00 0.00 72 1018.0
20260510034804 76 3 0.0 0.0 0.00 0.00 0.00 72 1017.9
20260510034305 76 3 0.0 0.0 0.00 0.00 0.00 72 1018.0
20260510033305 76 3 0.0 0.0 0.00 0.00 0.00 72 1018.1
20260510032804 76 3 0.0 10.0 0.00 0.00 0.00 72 1018.1
20260510031804 76 109 10.0 20.0 0.00 0.00 0.00 72 1018.1
20260510031304 76 155 10.0 16.0 0.00 0.00 0.00 72 1018.1
20260510030804 77 167 16.0 17.0 0.00 0.00 0.00 71 1018.2
20260510030305 77 152 10.0 15.0 0.00 0.00 0.00 71 1018.1
20260510025804 77 114 12.0 20.0 0.00 0.00 0.00 70 1018.1
20260510025306 78 137 10.0 16.0 0.00 0.00 0.00 69 1018.2
20260510024804 78 141 12.0 18.0 0.00 0.00 0.00 69 1018.2
20260510024305 78 125 9.0 15.0 0.00 0.00 0.00 68 1018.2
20260510023805 78 156 6.0 15.0 0.00 0.00 0.00 68 1018.3
20260510022804 76 155 7.0 12.0 0.00 0.00 0.00 70 1018.4
20260510022306 76 134 7.0 12.0 0.00 0.00 0.00 70 1018.7
20260510021805 76 114 7.0 13.0 0.00 0.00 0.00 71 1018.8
20260510021304 76 133 10.0 17.0 0.00 0.00 0.00 71 1019.0
20260510020804 75 144 11.0 18.0 0.00 0.00 0.00 72 1019.1
20260510020305 75 126 13.0 17.0 0.00 0.00 0.00 72 1019.2
20260510015804 76 129 13.0 20.0 0.00 0.00 0.00 71 1019.2
20260510015306 76 144 12.0 20.0 0.00 0.00 0.00 72 1019.3
20260510014805 76 161 10.0 18.0 0.00 0.00 0.00 72 1019.3
20260510014304 76 135 11.0 17.0 0.00 0.00 0.00 71 1019.4
20260510013304 76 138 12.0 17.0 0.00 0.00 0.00 71 1019.6
20260510012804 76 146 11.0 22.0 0.00 0.00 0.00 71 1019.6
20260510012307 76 143 12.0 20.0 0.00 0.00 0.00 71 1019.7
20260510011804 76 131 8.0 13.0 0.00 0.00 0.00 70 1019.6
20260510011304 76 117 7.0 13.0 0.00 0.00 0.00 71 1019.6
20260510010804 76 120 11.0 17.0 0.00 0.00 0.00 70 1019.6
20260510010304 76 99 11.0 14.0 0.00 0.00 0.00 70 1019.6
20260510005804 76 116 8.0 16.0 0.00 0.00 0.00 70 1019.8
20260510004804 75 104 9.0 17.0 0.00 0.00 0.00 73 1019.8
20260510004304 74 125 7.0 12.0 0.00 0.00 0.00 74 1019.9
20260510003804 74 123 6.0 18.0 0.00 0.00 0.00 74 1020.1
20260510003304 74 11 0.0 10.0 0.00 0.00 0.00 76 1020.2
20260510002805 74 7 1.0 5.0 0.00 0.00 0.00 76 1020.1
20260510002307 74 160 5.0 5.0 0.00 0.00 0.00 76 1020.0
20260510001804 74 160 5.0 12.0 0.00 0.00 0.00 76 1020.0
20260510001305 73 143 5.0 12.0 0.00 0.00 0.00 76 1020.0
20260510000806 73 143 9.0 12.0 0.00 0.00 0.00 76 1020.1
20260510000305 73 154 8.0 14.0 0.00 0.00 0.00 76 1020.1
20260509235805 73 85 8.0 8.0 0.00 0.00 0.00 76 1020.2
20260509235307 73 85 8.0 12.0 0.00 0.00 0.00 76 1020.0
20260509234304 73 125 14.0 14.0 0.00 0.00 0.00 77 1019.9
20260509233804 73 111 7.0 14.0 0.00 0.00 0.00 77 1020.0
20260509232805 72 138 7.0 17.0 0.00 0.00 0.00 77 1019.9
20260509232306 72 3 0.0 0.0 0.00 0.00 0.00 77 1019.8
20260509231804 72 3 0.0 0.0 0.00 0.00 0.00 77 1019.8
20260509231304 72 3 0.0 0.0 0.00 0.00 0.00 77 1019.8
20260509230817 72 120 13.0 13.0 0.00 0.00 0.00 77 1019.8
20260509230304 72 139 13.0 13.0 0.00 0.00 0.00 77 1019.7
20260509225804 72 139 10.0 20.0 0.00 0.00 0.00 77 1019.5
20260509225306 72 143 6.0 15.0 0.00 0.00 0.00 78 1019.5
20260509224806 72 92 13.0 13.0 0.00 0.00 0.00 78 1019.5
20260509224305 72 152 7.0 12.0 0.00 0.00 0.00 78 1019.5
20260509222805 71 152 12.0 12.0 0.00 0.00 0.00 78 1019.3
20260509222307 71 155 8.0 14.0 0.00 0.00 0.00 78 1019.3
20260509221804 71 126 5.0 10.0 0.00 0.00 0.00 78 1019.3
20260509221304 70 132 5.0 20.0 0.00 0.00 0.00 80 1019.1
20260509220304 70 3 0.0 0.0 0.00 0.00 0.00 80 1019.1
20260509215806 70 3 0.0 0.0 0.00 0.00 0.00 80 1019.3
20260509215306 70 3 0.0 0.0 0.00 0.00 0.00 80 1019.2
20260509214804 70 3 0.0 0.0 0.00 0.00 0.00 80 1019.0
20260509214305 70 3 0.0 9.0 0.00 0.00 0.00 80 1018.6
20260509213805 70 118 9.0 9.0 0.00 0.00 0.00 80 1018.5
20260509213306 70 118 9.0 10.0 0.00 0.00 0.00 80 1018.5
20260509212805 70 1 0.0 0.0 0.00 0.00 0.00 80 1018.4
20260509211804 70 2 0.0 0.0 0.00 0.00 0.00 80 1018.2
20260509211306 70 1 0.0 0.0 0.00 0.00 0.00 80 1018.2
20260509210804 70 7 1.0 5.0 0.00 0.00 0.00 80 1018.0
20260509210305 70 164 5.0 5.0 0.00 0.00 0.00 80 1018.0
20260509205307 70 151 5.0 9.0 0.00 0.00 0.00 80 1017.8
20260509204804 70 2 0.0 0.0 0.00 0.00 0.00 81 1017.8
20260509203305 70 2 0.0 0.0 0.00 0.00 0.00 81 1017.7
20260509202307 70 151 5.0 5.0 0.00 0.00 0.00 81 1017.6
20260509201804 70 150 4.0 5.0 0.00 0.00 0.00 81 1017.4
20260509200805 70 2 0.0 0.0 0.00 0.00 0.00 81 1017.2
20260509200304 70 1 0.0 0.0 0.00 0.00 0.00 81 1017.0
20260509195805 70 93 7.0 7.0 0.00 0.00 0.00 81 1017.0
20260509195307 70 116 7.0 7.0 0.00 0.00 0.00 81 1016.8
20260509194804 70 125 6.0 10.0 0.00 0.00 0.00 81 1016.8
20260509194305 70 139 6.0 12.0 0.00 0.00 0.00 81 1016.7
20260509193804 70 142 4.0 12.0 0.00 0.00 0.00 81 1016.7
20260509193304 70 127 6.0 12.0 0.00 0.00 0.00 80 1016.7
20260509192306 70 142 6.0 12.0 0.00 0.00 0.00 80 1016.6
20260509191305 70 140 3.0 9.0 0.00 0.00 0.00 80 1016.5
20260509190804 70 115 5.0 9.0 0.00 0.00 0.00 80 1016.6
20260509190305 70 122 5.0 9.0 0.00 0.00 0.00 80 1016.6
20260509185804 70 137 6.0 12.0 0.00 0.00 0.00 80 1016.5
20260509184805 70 145 5.0 9.0 0.00 0.00 0.00 80 1016.4
20260509183804 70 120 4.0 8.0 0.00 0.00 0.00 80 1016.4
20260509183304 70 137 4.0 12.0 0.00 0.00 0.00 80 1016.5
20260509182804 70 124 6.0 12.0 0.00 0.00 0.00 79 1016.4
20260509182306 70 129 5.0 12.0 0.00 0.00 0.00 79 1016.3
20260509181805 70 125 5.0 9.0 0.00 0.00 0.00 79 1016.3
20260509181304 70 123 4.0 10.0 0.00 0.00 0.00 79 1016.2
20260509180804 70 126 5.0 12.0 0.00 0.00 0.00 79 1016.3
20260509175806 70 144 3.0 12.0 0.00 0.00 0.00 78 1016.4
20260509175306 70 3 0.0 0.0 0.00 0.00 0.00 81 1016.4
20260509174805 70 3 0.0 0.0 0.00 0.00 0.00 81 1016.5
20260509174304 70 3 0.0 0.0 0.00 0.00 0.00 81 1016.5
20260509173304 70 3 0.0 0.0 0.00 0.00 0.00 81 1016.6
20260509172306 70 3 0.0 0.0 0.00 0.00 0.00 81 1016.5
20260509171805 70 2 0.0 0.0 0.00 0.00 0.00 81 1016.5
20260509171305 70 3 0.0 0.0 0.00 0.00 0.00 81 1016.6
20260509170304 70 3 0.0 0.0 0.00 0.00 0.00 81 1016.6
20260509165804 70 3 0.0 0.0 0.00 0.00 0.00 81 1016.5
20260509165307 70 3 0.0 0.0 0.00 0.00 0.00 81 1016.6
20260509164804 70 3 0.0 0.0 0.00 0.00 0.00 81 1016.6
20260509164304 70 3 0.0 0.0 0.00 0.00 0.00 81 1016.5
20260509162804 70 146 12.0 12.0 0.00 0.00 0.00 81 1016.7
20260509162307 70 146 12.0 14.0 0.00 0.00 0.00 81 1016.7
20260509161805 70 123 9.0 14.0 0.00 0.00 0.00 81 1016.7
20260509161305 69 125 5.0 13.0 0.00 0.00 0.00 81 1016.8
20260509160804 68 7 0.0 3.0 0.00 0.00 0.00 82 1016.8
20260509160304 68 3 0.0 0.0 0.00 0.00 0.00 82 1017.0
20260509155805 68 3 0.0 0.0 0.00 0.00 0.00 82 1017.0